Location: Coed Ely
(51.5661°N, 3.4150°W)
Time: 19:29:28
(UTC+00:00)

SeaSat 1 - Pass Details

Date: 28 January 2021
Orbit: 744 x 747 km, 108.0° (Epoch: 27 February)

Event Time Altitude Azimuth Distance (km) Brightness Sun altitude
Rises 17:27:28 0° 29° (NNE) 3,203 5.2 -5.2°
Reaches altitude 10° 17:29:45 10° 28° (NNE) 2,275 4.5 -5.5°
Maximum altitude 17:34:41 77° 304° (NW) 774 2.7 -6.3°
Drops below altitude 10° 17:39:36 10° 219° (SW) 2,262 6.0 -7.0°
Sets 17:41:52 0° 218° (SW) 3,183 6.8 -7.3°
